Fort Polk, LA

1:16 AM CDT on July 25, 2017 (GMT -0500)
Fort Polk

Weather History for KAQV - October, 2013

Change the Weather History Date:

Thursday, October 31, 2013

  Actual Average (KPOE) Record (KPOE)
Temperature  
Mean Temperature 68 °F -  
Max Temperature 73 °F 71 °F 86 °F (2016)
Min Temperature 62 °F 51 °F 41 °F (2011)
Cooling Degree Days 2    
Growing Degree Days 18 (Base 50)    
Moisture  
Dew Point 69 °F    
Average Humidity 95    
Maximum Humidity 100    
Minimum Humidity 88    
Precipitation  
Precipitation 6.67 in - - ()
Sea Level Pressure  
Sea Level Pressure 29.79 in    
Wind  
Wind Speed 7 mph (South)    
Max Wind Speed 13 mph    
Max Gust Speed 31 mph    
Visibility 6 miles    
Events Fog , Rain , Thunderstorm    
Averages and records for this station are not official NWS values.
T = Trace of Precipitation, MM = Missing Value Source: NWS Daily Summary

Daily Weather History Graph

Daily Weather History Graph

Search for Another Location

Airport or City:

Trip Planner

Search our weather history database for the weather conditions in past years. The results will help you decide how hot, cold, wet, or windy it might be!

Date:

Astronomy

Oct. 31, 2013 Rise Set
Actual Time 7:28 AM CDT 6:24 PM CDT
Civil Twilight 7:03 AM CDT 6:49 PM CDT
Nautical Twilight 6:34 AM CDT 7:18 PM CDT
Astronomical Twilight 6:06 AM CDT 7:46 PM CDT
Moon 4:29 AM CDT (10/31) 4:34 PM CDT (10/31)
Length of Visible Light 11h 46m
Length of Day
10h 56m
Waning Crescent, 10% of the Moon is Illuminated
Oct 31
Waning Crescent
Nov 3
New
Nov 9
First Quarter
Nov 17
Full
Nov 25
Last Quarter

Hourly Weather History & Observations

Time (CDT) Temp. Dew Point Humidity Pressure Visibility Wind Dir Wind Speed Gust Speed Precip Events Conditions
12:03 AM 71.6 °F 69.8 °F 94% 29.89 in 10.0 mi SSE 8.1 mph 21.9 mph N/A   Overcast
12:56 AM 72.0 °F 70.0 °F 93% 29.88 in 9.0 mi Variable 5.8 mph - 0.10 in Rain Light Rain
1:56 AM 72.0 °F 70.0 °F 93% 29.83 in 10.0 mi SSE 8.1 mph 17.3 mph 0.00 in   Overcast
2:47 AM 71.6 °F 69.8 °F 94% 29.82 in 2.5 mi SSE 9.2 mph 17.3 mph 0.11 in Rain Heavy Rain
2:56 AM 72.0 °F 70.0 °F 93% 29.81 in 1.5 mi SSE 9.2 mph 20.7 mph 0.24 in Rain Heavy Rain
3:00 AM 71.6 °F 69.8 °F 94% 29.81 in 2.0 mi SSE 8.1 mph 20.7 mph 0.04 in Rain Heavy Rain
3:08 AM 71.6 °F 69.8 °F 94% 29.80 in 4.0 mi SSE 9.2 mph - 0.06 in Rain Light Rain
3:17 AM 71.6 °F 69.8 °F 94% 29.78 in 5.0 mi SSE 9.2 mph 19.6 mph 0.08 in Rain Rain
3:30 AM 71.6 °F 69.8 °F 94% 29.78 in 10.0 mi SSE 9.2 mph 17.3 mph 0.08 in Rain Light Rain
3:56 AM 73.0 °F 71.1 °F 93% 29.77 in 10.0 mi SSE 9.2 mph 25.3 mph 0.10 in   Overcast
4:04 AM 73.4 °F 71.6 °F 94% 29.77 in 10.0 mi SSE 11.5 mph 24.2 mph N/A   Overcast
4:56 AM 73.0 °F 70.0 °F 90% 29.74 in 10.0 mi SSE 11.5 mph 24.2 mph 0.00 in Rain Light Rain
5:49 AM 73.4 °F 71.6 °F 94% 29.73 in 10.0 mi South 8.1 mph 18.4 mph 0.04 in Rain , Thunderstorm Light Thunderstorms and Rain
5:56 AM 73.9 °F 71.1 °F 91% 29.68 in 10.0 mi SSE 10.4 mph 25.3 mph 0.04 in Rain , Thunderstorm Light Thunderstorms and Rain
6:21 AM 73.4 °F 71.6 °F 94% 29.74 in 9.0 mi SSW 12.7 mph 25.3 mph 0.01 in Rain Light Rain
6:56 AM 73.9 °F 72.0 °F 93% 29.74 in 2.5 mi Variable 3.5 mph - 0.11 in Rain , Thunderstorm Heavy Thunderstorms and Rain
7:05 AM 73.4 °F 71.6 °F 94% 29.75 in 1.0 mi West 4.6 mph - 0.23 in Rain , Thunderstorm Heavy Thunderstorms and Rain
7:08 AM 73.4 °F 73.4 °F 100% 29.75 in 0.8 mi Variable 4.6 mph - 0.33 in Rain , Thunderstorm Heavy Thunderstorms and Rain
7:21 AM 73.4 °F 73.4 °F 100% 29.73 in 0.5 mi Calm Calm - 1.25 in Fog , Rain , Thunderstorm Heavy Thunderstorms and Rain
7:56 AM 73.9 °F 73.0 °F 97% 29.77 in 0.8 mi SW 9.2 mph 18.4 mph 3.01 in Rain , Thunderstorm Heavy Thunderstorms and Rain
8:05 AM 73.4 °F 71.6 °F 94% 29.77 in 0.8 mi SW 9.2 mph 31.1 mph 0.50 in Rain Heavy Rain
8:17 AM 73.4 °F 71.6 °F 94% 29.75 in 0.8 mi Variable 5.8 mph - 0.88 in Rain , Thunderstorm Heavy Thunderstorms and Rain
8:19 AM 73.4 °F 71.6 °F 94% 29.75 in 1.0 mi Variable 4.6 mph - 0.93 in Rain , Thunderstorm Heavy Thunderstorms and Rain
8:36 AM 73.4 °F 71.6 °F 94% 29.76 in 1.0 mi Variable 5.8 mph - 1.46 in Rain Heavy Rain
8:43 AM 73.4 °F 71.6 °F 94% 29.75 in 0.8 mi Variable 5.8 mph - 1.65 in Rain Heavy Rain
8:49 AM 73.4 °F 71.6 °F 94% 29.74 in 1.0 mi SW 4.6 mph - 1.81 in Rain Heavy Rain
8:56 AM 73.9 °F 73.0 °F 97% 29.74 in 1.0 mi Variable 4.6 mph - 1.88 in Rain Heavy Rain
9:13 AM 73.4 °F 73.4 °F 100% 29.74 in 0.2 mi Variable 3.5 mph - 0.45 in Fog , Rain Heavy Rain
9:29 AM 73.4 °F 73.4 °F 100% 29.76 in 1.5 mi West 8.1 mph - 0.64 in Rain Rain
9:32 AM 73.4 °F 73.4 °F 100% 29.77 in 3.0 mi West 8.1 mph - 0.64 in Rain Light Rain
9:45 AM 73.4 °F 71.6 °F 94% 29.78 in 10.0 mi Variable 6.9 mph - 0.65 in Rain Light Rain
9:56 AM 73.9 °F 72.0 °F 93% 29.78 in 7.0 mi Variable 5.8 mph - 0.67 in Rain Rain
9:59 AM 73.4 °F 71.6 °F 94% 29.78 in 8.0 mi Variable 4.6 mph - 0.01 in Rain Light Rain
10:10 AM 73.4 °F 71.6 °F 94% 29.79 in 2.5 mi Variable 4.6 mph - 0.08 in Rain Heavy Rain
10:14 AM 73.4 °F 71.6 °F 94% 29.79 in 1.5 mi Variable 6.9 mph - 0.10 in Rain Heavy Rain
10:21 AM 73.4 °F 71.6 °F 94% 29.80 in 4.0 mi SW 9.2 mph 18.4 mph 0.11 in Rain Light Rain
10:28 AM 73.4 °F 69.8 °F 88% 29.80 in 7.0 mi SW 8.1 mph 18.4 mph 0.12 in Rain Rain
10:40 AM 71.6 °F 71.6 °F 100% 29.80 in 6.0 mi SSW 6.9 mph - 0.14 in Rain Light Rain
10:56 AM 72.0 °F 70.0 °F 93% 29.81 in 10.0 mi Variable 4.6 mph - 0.14 in Rain Light Rain
11:56 AM 71.1 °F 69.1 °F 93% 29.80 in 5.0 mi Variable 6.9 mph - 0.08 in Rain Rain
12:56 PM 69.1 °F 68.0 °F 96% 29.79 in 4.0 mi Variable 5.8 mph - 0.10 in Rain Light Rain
1:56 PM 68.0 °F 66.9 °F 96% 29.78 in 7.0 mi Calm Calm - 0.08 in Rain Light Rain
2:32 PM 68.0 °F 66.2 °F 94% 29.79 in 5.0 mi Variable 5.8 mph - 0.06 in Rain Rain
2:56 PM 66.9 °F 66.0 °F 97% 29.77 in 9.0 mi Variable 4.6 mph - 0.09 in Rain Light Rain
3:56 PM 68.0 °F 66.0 °F 93% 29.75 in 10.0 mi Calm Calm - 0.02 in   Scattered Clouds
4:09 PM 68.0 °F 66.2 °F 94% 29.75 in 10.0 mi Variable 4.6 mph - N/A   Mostly Cloudy
4:56 PM 68.0 °F 66.0 °F 93% 29.76 in 10.0 mi SSW 3.5 mph - N/A   Overcast
5:37 PM 68.0 °F 66.2 °F 94% 29.77 in 10.0 mi Variable 4.6 mph - N/A   Overcast
5:56 PM 68.0 °F 66.0 °F 93% 29.77 in 10.0 mi Variable 4.6 mph - N/A   Overcast
6:25 PM 66.2 °F 64.4 °F 94% 29.79 in 10.0 mi Variable 3.5 mph - N/A   Partly Cloudy
6:56 PM 66.9 °F 64.9 °F 93% 29.80 in 10.0 mi Variable 4.6 mph - N/A   Partly Cloudy
7:33 PM 66.2 °F 64.4 °F 94% 29.81 in 10.0 mi Variable 3.5 mph - N/A   Mostly Cloudy
7:45 PM 66.2 °F 64.4 °F 94% 29.81 in 10.0 mi SSW 5.8 mph - N/A   Overcast
7:56 PM 66.0 °F 64.0 °F 93% 29.80 in 10.0 mi Variable 3.5 mph - N/A   Mostly Cloudy
8:56 PM 66.0 °F 64.0 °F 93% 29.83 in 10.0 mi Variable 3.5 mph - N/A   Overcast
9:05 PM 66.2 °F 64.4 °F 94% 29.84 in 10.0 mi Calm Calm - N/A   Overcast
9:53 PM 64.4 °F 64.4 °F 100% 29.85 in 10.0 mi Variable 3.5 mph - 0.01 in   Scattered Clouds
9:56 PM 64.9 °F 64.0 °F 97% 29.84 in 10.0 mi Variable 3.5 mph - 0.01 in   Scattered Clouds
10:04 PM 64.4 °F 64.4 °F 100% 29.85 in 10.0 mi Variable 3.5 mph - N/A   Mostly Cloudy
10:52 PM 64.4 °F 62.6 °F 94% 29.86 in 10.0 mi Calm Calm - N/A   Scattered Clouds
10:56 PM 64.0 °F 63.0 °F 96% 29.86 in 10.0 mi Calm Calm - N/A   Partly Cloudy
11:54 PM 62.6 °F 62.6 °F 100% 29.87 in 9.0 mi Variable 3.5 mph - N/A   Mostly Cloudy
11:56 PM 63.0 °F 62.1 °F 97% 29.86 in 9.0 mi Variable 3.5 mph - N/A   Mostly Cloudy